DELTA 1 DEB, 21439

Orbit data source: Space-Track

DELTA 1 DEB, 21439 is space debris in SSO originally from a launch on Thu, 12 Jun 1975 UTC launched from the Air Force Western Test Range (AFWTR). Debris objects in space refer to the collection of defunct objects orbiting the Earth. Examples of debris include non-operational satellites, rocket bodies, and fragments generated from explosions, collisions, or faulty payload assembly.

Loading next visibility...
Identifier
21439, 1975-052DX
Orbit
SSO
Country
Flag of USUS
Related business
Manufacturer
Unknown
Mission
Spacecraft
Bus & Motor
Unknown
Mass
Unknown
Launch date (UTC)
1975-06-12 (51 years ago)
Launch vehicle
Unknown
Launch site
Air Force Western Test Range (AFWTR)
Object type
Payload
Rocket body
Debris
Shape & HBR
Unknown shape, 0.1 m
Radar Cross Section
Medium (>0.1 m² and <1 m²)

Expand to show TLE details & history
Last TLE update: 3 days ago

TLE from 3 days ago
0 DELTA 1 DEB
1 21439U 75052DX  26169.94709808  .00003708  00000-0  50653-2 0  9996
2 21439  99.9974 175.1500 0349977  50.9156 312.2555 13.37105888613076
Epoch: 2026-06-18T22:43Z
TLE epoch observation values (Epoch: 2026-06-18T22:43:49.274Z)
Latitude
0.00001°
Longitude
-72.98843°
Altitude
951.558 km
Speed
7.46 km/s
True Right ascension
11h 40m 35s
True Declination
0° 00' 00"
Sunlit
Object was in daylight at epoch
Visualization orbit readout
Latitude
Unknown
Longitude
Unknown
Altitude
Unknown
Speed
Unknown
Apparent Right ascension
Unknown
Apparent Declination
Unknown
Sunlit
N/A
Visualization observer readout
Local Sidereal Time
09:17:00
Azimuth
Unknown
Elevation
Unknown
Doppler factor
Unknown
Orbital elements
Apogee altitude
1,379.735 km
Perigee altitude
855.082 km
Semi-major axis
7,495.546 km
Eccentricity
0.035
Inclination
99.9974°
RAAN
175.15°
Arg. of periapsis
50.9156°
True anomaly
309.19876°
Mean anomaly
312.2555°
Eccentric anomaly
310.7361°
Mean motion
3.34455 °/min
Orbital period
107.64 mins
BSTAR
0.0050653
Loading maneuver chart data...
Computing Atmospheric mass density...
Loading historical data...
Loading historical data...
Loading historical data...
Loading historical data...
Loading historical data...
Loading historical data...
Loading historical data...

Documentation

Showing up to 5 results
|